Location: Lake Sonoma
(38.7200°N, 123.0564°W)
Time: 03:28:24
(UTC-08:00)

Amateur Radio Satellites - All Passes

Search period start: 18 December 2014 02:58
Search period end: 19 December 2014 02:58
Location: Lake Sonoma, 38.7200°N, 123.0564°W

Satellite Date Start Highest point End Downlink Frequencies (MHz)
Time Altitude Azimuth
MOZHAYETS 4 18 Dec 03:13:50 03:16:40 16° 65° (ENE) 03:19:30
Gurwin Techsat 1B 18 Dec 03:25:38 03:30:48 54° 288° (WNW) 03:35:57 435.225
VERMONT LUNAR 18 Dec 03:37:12 03:40:09 25° 150° (SSE) 03:43:06 437.305
PHONESAT 2.4 18 Dec 03:37:52 03:40:22 18° 147° (SSE) 03:42:52 2401.200-2431.200
HORYU 2 18 Dec 03:45:36 03:50:07 77° 285° (WNW) 03:54:37 437.375
AIST 1 18 Dec 03:45:44 03:49:54 49° 80° (E) 03:54:01
ITAMSAT 1 18 Dec 03:48:22 03:52:10 21° 295° (WNW) 03:55:59 435.822/435.867
AO-7 18 Dec 03:54:11 04:02:06 44° 100° (E) 04:09:55 29.400- 29.500
JAS-2 18 Dec 04:20:22 04:24:30 21° 91° (E) 04:28:23 435.910
MOZHAYETS 4 18 Dec 04:48:57 04:53:27 50° 261° (W) 04:57:59
PRISM 18 Dec 04:59:08 05:02:52 31° 70° (ENE) 05:06:36 437.425
STRAND 1 18 Dec 05:08:48 05:12:22 19° 64° (ENE) 05:15:56 437.568
VERMONT LUNAR 18 Dec 05:14:42 05:18:14 89° 164° (SSE) 05:21:47 437.305
PHONESAT 2.4 18 Dec 05:15:05 05:18:41 70° 162° (SSE) 05:22:18 2401.200-2431.200
GONETS M04 18 Dec 05:15:18 05:23:26 43° 87° (E) 05:31:34
CUTE-I 18 Dec 05:17:10 05:19:46 14° 91° (E) 05:22:22 437.470
AIST 1 18 Dec 05:25:29 05:27:02 12° 275° (W) 05:28:35
AO-7 18 Dec 05:47:06 05:54:45 42° 298° (WNW) 06:02:22 29.400- 29.500
SO-50 18 Dec 06:02:58 06:07:28 35° 51° (NE) 06:11:58 436.795
CUBESAT XI-V 18 Dec 06:03:55 06:08:35 72° 76° (ENE) 06:13:15 437.345
JAS-2 18 Dec 06:04:30 06:09:56 44° 291° (WNW) 06:14:56 435.910
Cubesat XI-IV 18 Dec 06:20:55 06:26:11 59° 101° (E) 06:31:25 437.490
PRISM 18 Dec 06:35:16 06:38:25 20° 265° (W) 06:41:35 437.425
STRAND 1 18 Dec 06:46:14 06:51:10 49° 260° (W) 06:56:08 437.568
VERMONT LUNAR 18 Dec 06:53:12 06:56:43 63° 3° (N) 07:00:14 437.305
PHONESAT 2.4 18 Dec 06:53:51 06:57:28 64° 358° (N) 07:01:05 2401.200-2431.200
CUTE-I 18 Dec 06:55:01 07:00:18 68° 286° (WNW) 07:05:33 437.470
GONETS M04 18 Dec 07:12:06 07:20:13 40° 286° (WNW) 07:28:24
SO-50 18 Dec 07:43:44 07:47:54 28° 248° (WSW) 07:52:03 436.795
CUBESAT XI-V 18 Dec 07:46:02 07:46:29 10° 271° (W) 07:46:55 437.345
BRITE-PL 18 Dec 07:54:01 07:56:23 14° 93° (E) 07:58:49 437.365/2234.400
Cubesat XI-IV 18 Dec 08:02:22 08:05:45 17° 297° (WNW) 08:09:08 437.490
HO-68 18 Dec 08:18:05 08:24:15 31° 96° (E) 08:30:22 435.675
VERMONT LUNAR 18 Dec 08:31:36 08:35:07 66° 199° (SSW) 08:38:37 437.305
PHONESAT 2.4 18 Dec 08:32:39 08:36:17 86° 195° (SSW) 08:39:56 2401.200-2431.200
GOMX 1 18 Dec 08:32:50 08:36:47 26° 96° (E) 08:40:55 467.674
AAUSAT CUBESAT 2 18 Dec 08:51:08 08:54:51 29° 96° (E) 08:58:32 437.432
CANX-2 18 Dec 08:54:54 08:59:11 58° 100° (E) 09:03:25 2200.000
UWE-3 18 Dec 09:04:41 09:06:17 12° 91° (E) 09:07:53 435.000/436.395/437.385
TIGRISAT 18 Dec 09:05:52 09:08:49 18° 66° (ENE) 09:11:48 435.000
QB50P1 18 Dec 09:09:08 09:10:53 12° 64° (ENE) 09:12:38 145.935-145.965
DOVE 4 18 Dec 09:09:57 09:14:30 46° 99° (E) 09:19:19 437.250
FUNcube-1 18 Dec 09:11:00 09:12:13 11° 90° (E) 09:13:25 145.935
MaSat-1 18 Dec 09:21:00 09:23:24 85° 105° (ESE) 09:25:40 437.345
COMPASS 1 18 Dec 09:24:09 09:28:26 84° 102° (ESE) 09:32:41 437.405
DANDE 18 Dec 09:25:48 09:28:15 20° 86° (E) 09:31:10 436.750
CUTE 1.7 + AOD 2 18 Dec 09:26:06 09:30:24 67° 284° (WNW) 09:34:39 437.475
SEEDS 18 Dec 09:26:07 09:30:25 78° 284° (WNW) 09:34:41 437.485
DX 1 18 Dec 09:26:47 09:30:28 27° 97° (E) 09:34:09 434.975-435.025
BRITE-PL 18 Dec 09:30:33 09:35:06 58° 285° (WNW) 09:40:01 437.365/2234.400
UNISAT 6 18 Dec 09:32:25 09:36:21 35° 71° (ENE) 09:40:24 437.425
YUBILEINY 18 Dec 09:34:14 09:39:04 16° 62° (ENE) 09:43:51 435.215
POPSAT HIP 1 18 Dec 09:35:35 09:38:59 24° 69° (ENE) 09:42:24 437.405
Oscar 11 18 Dec 09:53:23 09:57:46 76° 102° (ESE) 10:02:07 145.826/435.025
CINEMA 3 18 Dec 09:54:27 09:59:10 81° 102° (ESE) 10:04:04 145.822/145.860
CUBEBUG 2 18 Dec 09:55:02 09:59:32 50° 100° (E) 10:04:07 437.445
DELFI C3 18 Dec 09:56:22 10:00:30 69° 101° (ESE) 10:04:35 145.870
50 SAT 18 Dec 10:00:13 10:02:59 17° 93° (E) 10:05:44 437.505
UKube-1 18 Dec 10:00:14 10:04:33 64° 102° (ESE) 10:08:50 .
HUMSAT D 18 Dec 10:01:53 10:05:22 24° 95° (E) 10:08:52 437.325/437.525
ANTELSAT 18 Dec 10:03:37 10:07:56 81° 76° (ENE) 10:12:24 437.575/2403.000
DUCHIFAT 1 18 Dec 10:04:09 10:08:13 51° 74° (ENE) 10:12:18 145.980
HO-68 18 Dec 10:05:19 10:12:06 48° 293° (WNW) 10:18:52 435.675
VELOX 1 18 Dec 10:10:25 10:14:10 27° 96° (E) 10:17:54 145.980
GOMX 1 18 Dec 10:10:42 10:14:51 32° 289° (WNW) 10:19:15 467.674
VERMONT LUNAR 18 Dec 10:10:47 10:13:03 16° 214° (SW) 10:15:19 437.305
PHONESAT 2.4 18 Dec 10:11:44 10:14:44 24° 211° (SSW) 10:17:43 2401.200-2431.200
QB50P2 18 Dec 10:15:40 10:19:52 73° 76° (ENE) 10:24:05 145.880/145.840
BUGSAT 1 18 Dec 10:15:41 10:19:43 56° 74° (ENE) 10:23:43 437.445
ZACube-1 18 Dec 10:16:52 10:21:22 63° 101° (E) 10:25:54 437.345
POLYITAN 1 18 Dec 10:23:33 10:27:46 90° 75° (ENE) 10:32:00 437.675
AAUSAT CUBESAT 2 18 Dec 10:27:05 10:30:20 22° 292° (WNW) 10:33:35 437.432
NANOSAT C BR1 18 Dec 10:28:05 10:32:18 81° 257° (WSW) 10:36:32 145.865
CUSAT 1 18 Dec 10:28:25 10:31:36 42° 286° (WNW) 10:35:47 437.405
CANX-2 18 Dec 10:32:50 10:34:36 12° 296° (WNW) 10:36:21 2200.000
UWE-3 18 Dec 10:38:38 10:43:09 64° 285° (WNW) 10:47:45 435.000/436.395/437.385
TIGRISAT 18 Dec 10:41:14 10:45:15 38° 262° (W) 10:49:22 435.000
QB50P1 18 Dec 10:42:10 10:46:17 54° 260° (W) 10:50:26 145.935-145.965
FUNcube-1 18 Dec 10:44:26 10:48:55 65° 285° (WNW) 10:53:27 145.935
O/OREOS (USA 219) 18 Dec 10:46:20 10:50:40 44° 65° (ENE) 10:55:00 437.305
DOVE 4 18 Dec 10:48:43 10:51:58 19° 293° (WNW) 10:55:19 437.250
AISAT 18 Dec 10:51:36 10:56:03 81° 103° (ESE) 11:00:29 437.250
RS-15 18 Dec 10:58:48 11:08:01 33° 105° (ESE) 11:17:10 29.354- 29.394
DX 1 18 Dec 11:03:04 11:06:36 25° 292° (WNW) 11:10:08 434.975-435.025
CUBEBUG 1 18 Dec 11:07:03 11:11:10 42° 99° (E) 11:15:16 437.445
DANDE 18 Dec 11:09:20 11:11:41 17° 294° (WNW) 11:14:27 436.750
UNISAT 6 18 Dec 11:10:13 11:13:16 19° 267° (W) 11:16:22 437.425
POPSAT HIP 1 18 Dec 11:11:17 11:14:47 25° 264° (W) 11:18:18 437.405
YUBILEINY 18 Dec 11:28:31 11:37:16 83° 83° (E) 11:45:58 435.215
CUBEBUG 2 18 Dec 11:33:01 11:35:50 16° 294° (WNW) 11:38:42 437.445
50 SAT 18 Dec 11:34:31 11:38:18 35° 288° (WNW) 11:42:05 437.505
CINEMA 3 18 Dec 11:34:39 11:35:45 11° 297° (WNW) 11:36:52 145.822/145.860
HUMSAT D 18 Dec 11:37:26 11:41:07 28° 290° (WNW) 11:44:49 437.325/437.525
Oscar 19 18 Dec 11:37:42 11:40:40 16° 62° (ENE) 11:43:38 437.125/150
UKube-1 18 Dec 11:38:42 11:40:09 12° 297° (WNW) 11:41:35 .
ESTCUBE 1 18 Dec 11:39:44 11:44:14 77° 284° (WNW) 11:48:42 437.505/2401.250
DUCHIFAT 1 18 Dec 11:42:46 11:44:22 12° 269° (W) 11:45:57 145.980
VELOX 1 18 Dec 11:47:00 11:50:39 26° 291° (WNW) 11:54:18 145.980
BUGSAT 1 18 Dec 11:54:57 11:55:31 10° 269° (W) 11:56:06 437.445
ZACube-1 18 Dec 11:55:15 11:57:13 13° 296° (WNW) 11:59:11 437.345
SPROUT 18 Dec 12:24:53 12:29:11 73° 102° (ESE) 12:33:29 437.525
O/OREOS (USA 219) 18 Dec 12:26:58 12:29:40 16° 260° (W) 12:32:22 437.305
TISAT 1 18 Dec 12:29:40 12:33:55 90° 78° (ENE) 12:38:08 437.305
BEESAT 18 Dec 12:35:16 12:37:45 14° 92° (E) 12:40:12 436.000
CUBEBUG 1 18 Dec 12:44:29 12:47:12 16° 294° (WNW) 12:49:54 437.445
BEESAT 3 18 Dec 12:56:15 12:59:05 18° 110° (ESE) 13:01:57 437.485
AO-7 18 Dec 13:06:41 13:08:37 11° 45° (NE) 13:10:34 29.400- 29.500
Gurwin Techsat 1B 18 Dec 13:06:43 13:10:58 25° 66° (ENE) 13:15:14 435.225
RS-15 18 Dec 13:08:41 13:19:32 66° 306° (NW) 13:30:28 29.354- 29.394
PCSat 18 Dec 13:11:31 13:15:21 20° 106° (ESE) 13:19:13 145.827
Oscar 19 18 Dec 13:14:22 13:19:26 63° 259° (WSW) 13:24:34 437.125/150
AUBIESAT-1 18 Dec 13:14:46 13:15:57 11° 93° (E) 13:17:07 437.475
ITAMSAT 1 18 Dec 13:24:42 13:29:47 61° 73° (ENE) 13:34:54 435.822/435.867
YUBILEINY 18 Dec 13:27:31 13:32:54 18° 281° (WNW) 13:38:18 435.215
BEESAT 2 18 Dec 13:32:40 13:36:32 41° 115° (ESE) 13:40:28 435.950
M-CUBED/EXP-1 PRIME 18 Dec 13:36:40 13:40:10 23° 98° (E) 13:43:26 437.505
ITUPSAT 1 18 Dec 13:45:04 13:49:52 77° 103° (ESE) 13:54:37 437.325
SWISSCUBE 18 Dec 13:45:37 13:50:24 86° 103° (ESE) 13:55:09 437.505
ISS 18 Dec 14:03:29 14:06:40 46° 137° (SE) 14:09:51 145.825
BEESAT 18 Dec 14:11:15 14:15:55 56° 287° (WNW) 14:20:33 436.000
KKS-1 18 Dec 14:16:21 14:20:24 33° 97° (E) 14:24:25 437.445
JUGNU 18 Dec 14:17:14 14:19:10 12° 178° (S) 14:21:06 437.505
STARS 18 Dec 14:18:13 14:21:44 23° 95° (E) 14:25:14 437.465
AIST 2 18 Dec 14:25:57 14:30:09 74° 119° (ESE) 14:34:27 435.215
JAS-2 18 Dec 14:33:00 14:35:50 13° 57° (ENE) 14:38:35 435.910
BEESAT 3 18 Dec 14:33:08 14:36:58 37° 307° (NW) 14:40:52 437.485
HORYU 2 18 Dec 14:42:39 14:47:06 84° 76° (ENE) 14:51:37 437.375
Gurwin Techsat 1B 18 Dec 14:45:46 14:50:41 39° 262° (W) 14:55:39 435.225
AUBIESAT-1 18 Dec 14:47:04 14:51:24 58° 291° (WNW) 14:55:21 437.475
AO-7 18 Dec 14:51:31 14:59:29 53° 65° (ENE) 15:07:30 29.400- 29.500
PCSat 18 Dec 14:53:04 14:58:19 52° 302° (WNW) 15:03:38 145.827
ITAMSAT 1 18 Dec 15:06:47 15:09:39 15° 268° (W) 15:12:32 435.822/435.867
M-CUBED/EXP-1 PRIME 18 Dec 15:11:21 15:15:11 29° 297° (WNW) 15:18:44 437.505
BEESAT 2 18 Dec 15:11:57 15:14:58 19° 313° (NW) 15:18:01 435.950
SRMSAT 18 Dec 15:16:45 15:18:12 11° 175° (S) 15:19:39 437.500
ITUPSAT 1 18 Dec 15:25:35 15:27:04 11° 299° (WNW) 15:28:34 437.325
RS-15 18 Dec 15:26:29 15:34:34 23° 334° (NNW) 15:42:48 29.354- 29.394
SWISSCUBE 18 Dec 15:27:18 15:27:31 10° 300° (WNW) 15:27:44 437.505
GONETS M04 18 Dec 15:28:06 15:33:59 19° 64° (ENE) 15:39:48
ISS 18 Dec 15:40:44 15:43:24 22° 333° (NNW) 15:46:04 145.825
KKS-1 18 Dec 15:53:25 15:56:50 22° 293° (WNW) 16:00:14 437.445
STARS 18 Dec 15:54:19 15:58:12 30° 290° (WNW) 16:02:04 437.465
Cubesat XI-IV 18 Dec 16:06:30 16:07:46 11° 59° (ENE) 16:09:01 437.490
AIST 2 18 Dec 16:07:10 16:09:18 13° 317° (NW) 16:11:27 435.215
JAS-2 18 Dec 16:12:05 16:19:45 67° 73° (ENE) 16:26:50 435.910
AIST 1 18 Dec 16:14:07 16:18:01 32° 91° (E) 16:21:54
CUTE-I 18 Dec 16:37:22 16:41:18 22° 65° (ENE) 16:45:15 437.470
AO-7 18 Dec 16:45:13 16:52:28 33° 263° (W) 16:59:48 29.400- 29.500
MOZHAYETS 4 18 Dec 16:45:37 16:50:02 42° 98° (E) 16:54:23
SRMSAT 18 Dec 17:05:01 17:06:27 11° 185° (S) 17:07:53 437.500
GONETS M04 18 Dec 17:23:08 17:31:56 85° 265° (W) 17:40:38
Cubesat XI-IV 18 Dec 17:41:40 17:47:00 85° 75° (ENE) 17:52:22 437.490
RS-15 18 Dec 17:46:01 17:52:54 18° 12° (NNE) 17:59:53 29.354- 29.394
AIST 1 18 Dec 17:52:31 17:55:43 20° 286° (WNW) 17:58:55
JAS-2 18 Dec 17:59:11 18:05:04 24° 267° (W) 18:10:41 435.910
CUBESAT XI-V 18 Dec 18:03:08 18:06:29 20° 93° (E) 18:09:48 437.345
CUTE-I 18 Dec 18:15:55 18:21:01 47° 260° (W) 18:26:08 437.470
PRISM 18 Dec 18:18:34 18:22:42 62° 101° (ESE) 18:26:47 437.425
MOZHAYETS 4 18 Dec 18:23:45 18:26:54 18° 294° (WNW) 18:30:02
HO-68 18 Dec 18:46:34 18:51:40 22° 58° (ENE) 18:56:46 435.675
MaSat-1 18 Dec 18:53:15 18:55:40 77° 63° (ENE) 18:58:14 437.345
ISS 18 Dec 18:57:39 18:58:48 11° 14° (NNE) 18:59:57 145.825
STRAND 1 18 Dec 18:57:56 19:02:59 62° 102° (ESE) 19:08:01 437.568
BRITE-PL 18 Dec 19:05:42 19:07:05 12° 65° (ENE) 19:08:29 437.365/2234.400
GONETS M04 18 Dec 19:22:59 19:27:18 15° 284° (WNW) 19:31:37
CUSAT 1 18 Dec 19:24:23 19:30:05 22° 69° (ENE) 19:36:15 437.405
Cubesat XI-IV 18 Dec 19:26:55 19:27:42 10° 271° (W) 19:28:29 437.490
CUBESAT XI-V 18 Dec 19:39:48 19:44:01 37° 289° (WNW) 19:48:13 437.345
GOMX 1 18 Dec 19:41:12 19:44:16 20° 68° (ENE) 19:47:20 467.674
AAUSAT CUBESAT 2 18 Dec 19:42:05 19:44:56 18° 67° (ENE) 19:47:48 437.432
CANX-2 18 Dec 19:46:56 19:50:48 35° 71° (ENE) 19:54:42 2200.000
PRISM 18 Dec 19:56:39 19:57:40 11° 297° (WNW) 19:58:42 437.425
RS-15 18 Dec 19:59:11 20:09:37 41° 44° (NE) 20:20:25 29.354- 29.394
DANDE 18 Dec 20:04:58 20:11:52 37° 74° (ENE) 20:19:38 436.750
COMPASS 1 18 Dec 20:14:30 20:18:32 47° 73° (ENE) 20:22:37 437.405
DOVE 4 18 Dec 20:15:25 20:19:12 35° 72° (ENE) 20:23:00 437.250
SEEDS 18 Dec 20:17:01 20:21:12 61° 75° (ENE) 20:25:25 437.485
CUTE 1.7 + AOD 2 18 Dec 20:17:37 20:21:51 73° 76° (ENE) 20:26:08 437.475
SO-50 18 Dec 20:18:49 20:21:01 14° 107° (ESE) 20:23:14 436.795
DX 1 18 Dec 20:21:48 20:25:04 21° 67° (ENE) 20:28:19 434.975-435.025
HO-68 18 Dec 20:31:27 20:38:38 74° 256° (WSW) 20:45:50 435.675
ISS 18 Dec 20:33:00 20:36:07 39° 33° (NNE) 20:39:12 145.825
STRAND 1 18 Dec 20:38:43 20:41:38 16° 298° (WNW) 20:44:32 437.568
BRITE-PL 18 Dec 20:41:02 20:45:11 54° 260° (W) 20:49:15 437.365/2234.400
DELFI C3 18 Dec 20:43:50 20:47:35 36° 72° (ENE) 20:51:22 145.870
Oscar 11 18 Dec 20:46:53 20:51:03 48° 73° (ENE) 20:55:14 145.826/435.025
CUBEBUG 2 18 Dec 20:52:52 20:56:36 33° 71° (ENE) 21:00:25 437.445
UKube-1 18 Dec 20:54:06 20:58:14 45° 72° (ENE) 21:02:23 .
HUMSAT D 18 Dec 20:54:20 20:56:36 15° 65° (ENE) 20:58:54 437.325/437.525
CINEMA 3 18 Dec 20:55:37 20:59:41 61° 75° (ENE) 21:03:51 145.822/145.860
CUSAT 1 18 Dec 21:06:03 21:13:43 81° 263° (W) 21:22:15 437.405
VELOX 1 18 Dec 21:07:38 21:11:00 22° 67° (ENE) 21:14:22 145.980
ZACube-1 18 Dec 21:12:12 21:16:04 40° 72° (ENE) 21:20:02 437.345
AAUSAT CUBESAT 2 18 Dec 21:16:27 21:20:19 35° 263° (W) 21:24:13 437.432
BEESAT 3 18 Dec 21:18:06 21:19:09 11° 41° (NE) 21:20:11 437.485
GOMX 1 18 Dec 21:18:38 21:22:15 28° 264° (W) 21:25:52 467.674
CANX-2 18 Dec 21:23:54 21:26:50 18° 267° (W) 21:29:47 2200.000
UWE-3 18 Dec 21:34:50 21:38:59 90° 76° (ENE) 21:43:15 435.000/436.395/437.385
FUNcube-1 18 Dec 21:39:15 21:43:24 84° 76° (ENE) 21:47:39 145.935
DANDE 18 Dec 21:48:08 21:55:24 49° 267° (W) 22:03:37 436.750
AISAT 18 Dec 21:48:28 21:52:49 62° 74° (ENE) 21:57:12 437.250
COMPASS 1 18 Dec 21:52:31 21:54:30 13° 269° (W) 21:56:30 437.405
BEESAT 2 18 Dec 21:54:26 21:57:36 20° 48° (NE) 22:00:43 435.950
DOVE 4 18 Dec 21:54:34 21:57:08 16° 267° (W) 21:59:43 437.250
SO-50 18 Dec 21:56:30 22:00:58 60° 304° (NW) 22:05:36 436.795
DX 1 18 Dec 21:57:11 22:01:05 32° 262° (W) 22:05:00 434.975-435.025
SEEDS 18 Dec 21:57:13 21:57:24 10° 270° (W) 21:57:36 437.485
ANTELSAT 18 Dec 21:57:55 22:01:25 20° 94° (E) 22:04:54 437.575/2403.000
PCSat 18 Dec 22:00:18 22:03:26 15° 44° (NE) 22:06:32 145.827
CUBEBUG 1 18 Dec 22:02:23 22:06:13 31° 70° (ENE) 22:10:03 437.445
QB50P2 18 Dec 22:04:26 22:06:31 13° 92° (E) 22:08:37 145.880/145.840
ISS 18 Dec 22:10:02 22:12:30 20° 229° (SW) 22:14:58 145.825
RS-15 18 Dec 22:11:29 22:22:34 63° 246° (WSW) 22:34:10 29.354- 29.394
POLYITAN 1 18 Dec 22:11:57 22:14:42 17° 93° (E) 22:17:27 437.675
NANOSAT C BR1 18 Dec 22:15:50 22:18:45 18° 94° (E) 22:21:40 145.865
DELFI C3 18 Dec 22:20:21 22:22:58 16° 267° (W) 22:25:36 145.870
50 SAT 18 Dec 22:21:13 22:25:11 66° 259° (W) 22:29:13 437.505
Oscar 11 18 Dec 22:25:20 22:27:28 13° 269° (W) 22:29:37 145.826/435.025
HO-68 18 Dec 22:26:09 22:27:23 10° 272° (W) 22:28:37 435.675
HUMSAT D 18 Dec 22:28:06 22:32:01 43° 261° (W) 22:36:00 437.325/437.525
QB50P1 18 Dec 22:29:22 22:32:56 26° 96° (E) 22:36:29 145.935-145.965
CUBEBUG 2 18 Dec 22:30:34 22:33:24 18° 267° (W) 22:36:18 437.445
UKube-1 18 Dec 22:32:15 22:34:37 14° 267° (W) 22:36:59 .
TIGRISAT 18 Dec 22:33:55 22:38:28 48° 99° (E) 22:43:01 435.000
YUBILEINY 18 Dec 22:34:54 22:40:20 18° 79° (ENE) 22:45:44 435.215
ESTCUBE 1 18 Dec 22:37:59 22:42:31 83° 76° (ENE) 22:47:05 437.505/2401.250
VELOX 1 18 Dec 22:43:25 22:47:23 32° 263° (W) 22:51:21 145.980
AIST 2 18 Dec 22:49:28 22:53:23 33° 52° (NE) 22:57:14 435.215
ZACube-1 18 Dec 22:50:13 22:52:39 15° 268° (W) 22:55:06 437.345
CUSAT 1 18 Dec 22:51:42 22:55:57 16° 277° (W) 23:00:25 437.405
BEESAT 3 18 Dec 22:53:47 22:57:59 87° 60° (ENE) 23:02:06 437.485
POPSAT HIP 1 18 Dec 22:57:19 23:01:30 55° 100° (E) 23:05:41 437.405
UNISAT 6 18 Dec 23:01:54 23:06:38 84° 284° (WNW) 23:11:21 437.425
SPROUT 18 Dec 23:17:56 23:22:01 46° 73° (ENE) 23:26:08 437.525
TISAT 1 18 Dec 23:20:57 23:25:04 56° 74° (ENE) 23:29:11 437.305
DUCHIFAT 1 18 Dec 23:26:20 23:30:33 68° 285° (WNW) 23:34:47 145.980
AISAT 18 Dec 23:28:44 23:29:49 11° 269° (W) 23:30:55 437.250
BEESAT 2 18 Dec 23:32:05 23:36:00 39° 245° (WSW) 23:39:51 435.950
ANTELSAT 18 Dec 23:33:56 23:38:18 38° 289° (WNW) 23:42:39 437.575/2403.000
BUGSAT 1 18 Dec 23:34:53 23:38:54 66° 285° (WNW) 23:42:56 437.445
QB50P2 18 Dec 23:38:34 23:42:40 47° 287° (WNW) 23:46:46 145.880/145.840
CUBEBUG 1 18 Dec 23:39:13 23:42:36 22° 265° (W) 23:45:59 437.445
BEESAT 18 Dec 23:41:01 23:43:46 15° 63° (ENE) 23:46:30 436.000
PCSat 18 Dec 23:42:07 23:47:35 88° 243° (WSW) 23:52:59 145.827
POLYITAN 1 18 Dec 23:46:48 23:50:47 38° 288° (WNW) 23:54:45 437.675
NANOSAT C BR1 18 Dec 23:50:51 23:54:43 35° 289° (WNW) 23:58:35 145.865
AUBIESAT-1 19 Dec 00:01:03 00:04:10 17° 59° (ENE) 00:07:19 437.475
QB50P1 19 Dec 00:05:15 00:08:43 25° 291° (WNW) 00:12:11 145.935-145.965
TIGRISAT 19 Dec 00:11:46 00:14:49 17° 295° (WNW) 00:17:52 435.000
M-CUBED/EXP-1 PRIME 19 Dec 00:23:57 00:28:09 31° 64° (ENE) 00:32:26 437.505
YUBILEINY 19 Dec 00:27:11 00:35:57 83° 277° (W) 00:44:44 435.215
AIST 2 19 Dec 00:28:28 00:31:49 23° 249° (WSW) 00:35:07 435.215
RS-15 19 Dec 00:30:11 00:32:40 11° 265° (W) 00:35:11 29.354- 29.394
POPSAT HIP 1 19 Dec 00:35:03 00:36:55 13° 296° (WNW) 00:38:47 437.405
ITUPSAT 1 19 Dec 00:50:33 00:55:21 76° 75° (ENE) 01:00:10 437.325
SWISSCUBE 19 Dec 00:50:52 00:55:40 85° 76° (ENE) 01:00:29 437.505
SPROUT 19 Dec 00:56:11 00:58:21 14° 268° (W) 01:00:30 437.525
O/OREOS (USA 219) 19 Dec 00:57:03 01:01:28 69° 109° (ESE) 01:05:54 437.305
TISAT 1 19 Dec 01:00:06 01:01:13 11° 269° (W) 01:02:20 437.305
KKS-1 19 Dec 01:13:49 01:17:29 26° 69° (ENE) 01:21:09 437.445
STARS 19 Dec 01:14:58 01:17:55 18° 66° (ENE) 01:20:53 437.465
BEESAT 19 Dec 01:16:24 01:21:07 57° 259° (W) 01:25:51 436.000
Oscar 19 19 Dec 01:27:17 01:32:21 51° 100° (E) 01:37:24 437.125/150
AUBIESAT-1 19 Dec 01:33:55 01:38:36 58° 255° (WSW) 01:43:27 437.475
ITAMSAT 1 19 Dec 01:39:35 01:43:42 24° 95° (E) 01:47:49 435.822/435.867
M-CUBED/EXP-1 PRIME 19 Dec 01:58:52 02:03:02 30° 260° (W) 02:07:20 437.505
YUBILEINY 19 Dec 02:29:15 02:34:09 16° 298° (WNW) 02:39:03 435.215
ITUPSAT 1 19 Dec 02:33:38 02:33:44 10° 270° (W) 02:33:50 437.325
HORYU 2 19 Dec 02:36:40 02:39:47 18° 94° (E) 02:42:54 437.375
O/OREOS (USA 219) 19 Dec 02:39:37 02:41:21 12° 306° (NW) 02:43:06 437.305
STARS 19 Dec 02:50:00 02:54:05 39° 261° (W) 02:58:12 437.465
KKS-1 19 Dec 02:50:18 02:54:01 26° 264° (W) 02:57:46 437.445
